Lapse_Rate
-3.8 -3.8 -3.7 -4.6 -4.8 -5.2 -4.7 -4.6 -4.4 -3.9 -4.0 -3.8 -3.5 -3.4 -3.3 -3.3 -3.6 -3.8 -3.5 -3.0 -3.1 -2.8 -2.6 -2.7 -2.2 -1.8 -2.1 -2.0 -1.8 -1.3 -0.7 0.5 2.3 2.4 1.7 1.5 1.1 1.4 2.2 3.3 3.6 3.3 3.3
-3.3 -3.8 -4.0 -4.6 -5.1 -4.9 -4.5 -4.5 -4.5 -3.8 -3.7 -3.5 -3.3 -3.2 -3.0 -2.9 -3.3 -3.3 -2.7 -2.2 -2.4 -2.1 -1.8 -2.2 -2.0 -0.7 -1.9 -1.7 -1.9 -1.7 -1.4 -0.4 1.1 2.3 2.1 1.9 1.4 2.0 1.8 1.2 2.9 3.8 3.1
-4.3 -4.2 -4.7 -4.7 -4.7 -4.2 -4.2 -4.3 -4.2 -3.6 -3.5 -3.6 -3.5 -3.3 -2.9 -2.9 -3.2 -3.4 -3.0 -2.3 -2.2 -2.2 -2.0 -2.0 -1.7 -1.7 -1.9 -1.8 -1.9 -1.9 -1.5 0.3 0.0 0.8 2.2 1.3 1.5 1.4 1.8 1.5 1.3 1.5 2.8
-4.1 -3.9 -3.7 -4.1 -4.2 -3.8 -4.0 -4.5 -3.9 -3.5 -3.1 -3.4 -3.5 -3.0 -3.1 -3.0 -3.2 -3.0 -2.8 -2.5 -2.3 -2.0 -1.9 -2.0 -1.7 -1.6 -1.8 -1.8 -1.5 -1.2 -0.3 -0.3 0.1 0.4 1.4 1.9 1.7 1.8 1.4 1.8 1.5 0.9 1.5
-3.4 -3.5 -3.3 -3.6 -4.4 -4.8 -4.7 -4.4 -3.6 -3.3 -2.9 -2.8 -2.8 -3.2 -3.2 -3.4 -2.9 -3.0 -2.7 -2.2 -1.9 -1.9 -1.9 -1.8 -1.6 -1.2 1.0 1.4 0.5 0.3 0.5 0.5 1.2 1.5 1.9 1.4 1.4 1.7 2.7 2.7 2.1 2.7 2.0
-2.9 -2.9 -2.6 -4.6 -4.6 -4.4 -4.0 -4.4 -4.0 -3.3 -3.2 -3.1 -3.3 -3.0 -3.4 -3.0 -2.0 -1.7 -2.3 -2.3 -2.0 -1.8 -1.5 -1.7 -2.0 -0.2 0.0 2.0 3.1 4.2 4.3 2.6 2.9 2.6 2.6 2.6 2.5 2.3 2.3 3.0 2.7 3.8 5.4
-3.0 -2.5 -2.7 -3.4 -3.7 -4.1 -3.9 -4.3 -3.4 -3.1 -3.6 -3.3 -3.3 -3.4 -3.5 -3.3 -1.4 -0.7 -1.0 -2.3 -2.2 -2.2 -2.2 -2.2 -1.6 -0.2 -0.1 -0.8 0.9 2.8 2.9 4.6 5.5 3.7 3.0 3.0 2.9 3.4 4.4 2.7 4.0 4.8 5.4
-2.7 -2.3 -2.7 -3.2 -2.9 -3.6 -4.1 -3.2 -3.1 -3.3 -2.8 -3.3 -3.5 -3.7 -3.4 -3.3 -1.5 -0.7 0.2 -2.4 -2.3 -2.1 -2.3 -2.1 -1.9 -1.1 -0.7 0.8 0.7 0.5 1.0 1.1 2.0 2.7 2.1 2.5 3.6 5.3 5.9 5.7 5.6 4.7 3.7
-2.2 -2.0 -2.2 -2.8 -2.8 -3.8 -3.5 -2.9 -2.9 -3.7 -3.9 -3.5 -3.4 -3.5 -3.7 -3.3 -1.5 -0.7 -1.2 -2.9 -2.2 -1.9 -1.6 -1.7 -1.6 -0.9 1.2 3.3 1.4 1.0 0.7 0.8 2.5 4.2 5.1 6.3 6.5 6.4 5.6 2.8 2.2 2.1 2.4
-2.1 -1.9 -1.8 -2.6 -2.3 -3.0 -2.7 -3.0 -3.8 -2.4 -2.1 -2.8 -3.1 -3.4 -2.8 -3.0 -2.0 -1.0 -1.8 -3.1 -2.3 -1.6 -1.4 -1.3 0.6 0.9 2.6 3.6 1.9 0.9 0.2 0.8 0.7 1.0 1.4 1.9 2.6 2.7 4.7 2.5 2.5 2.3 1.4
-1.8 -1.9 -2.9 -3.3 -2.4 -2.0 -2.6 -3.9 -3.9 -2.9 -3.4 -3.2 -2.9 -3.6 -3.4 -3.3 -3.4 -1.1 -1.0 -3.0 -1.9 -1.5 -1.4 -1.0 -0.4 1.8 2.8 3.5 3.8 1.0 1.2 1.0 1.5 0.9 0.8 0.4 0.6 0.8 0.7 1.1 1.7 2.1 2.8
-2.0 -2.8 -3.3 -3.0 -2.0 -2.3 -3.7 -4.3 -3.9 -2.9 -2.6 -3.3 -3.1 -3.4 -3.9 -3.8 -2.3 -1.1 -0.1 -0.3 -0.5 -1.3 -1.0 -0.9 -0.6 1.7 2.9 3.4 2.8 3.2 3.1 1.7 1.0 0.8 0.2 0.1 0.1 0.1 0.3 0.5 1.6 2.5 3.1
-2.7 -3.3 -3.4 -3.4 -2.8 -3.0 -3.1 -4.3 -4.4 -2.9 -1.8 -2.3 -2.0 -2.1 -3.3 -3.9 -4.0 -0.8 0.9 0.9 1.0 -1.2 -1.2 -0.4 1.3 2.3 2.8 1.8 3.0 2.9 2.1 0.4 0.2 0.3 0.4 0.1 -0.2 0.1 0.4 1.1 1.8 2.7 2.2
-3.1 -3.2 -3.7 -3.9 -4.2 -4.3 -2.2 -2.4 -2.1 -2.5 -1.7 -1.9 -1.8 -1.9 -3.4 -3.9 -3.9 -3.4 -1.4 -0.1 1.2 -0.2 0.9 -0.8 0.5 1.8 2.1 1.3 0.9 0.1 -0.3 -0.3 0.1 0.4 0.2 -0.6 -0.5 0.6 1.1 1.3 1.4 1.5 1.5
-3.4 -3.6 -3.9 -3.9 -3.5 -4.2 -2.9 -2.5 -1.5 -1.8 -1.1 -1.8 -1.3 -1.7 -2.8 -3.5 -3.6 -2.3 -1.8 -2.4 -2.5 -1.0 -1.7 -1.4 -0.9 -0.5 -0.4 -0.5 -0.7 -0.5 -0.2 -0.0 0.4 0.2 0.4 0.1 0.7 1.5 1.9 2.2 2.4 2.6 3.9
-2.9 -3.5 -4.1 -4.2 -4.5 -4.2 -4.0 -4.7 -3.8 -3.3 -2.3 -2.3 -2.0 -2.1 -3.0 -1.4 -0.6 -0.4 0.0 -0.1 0.2 1.4 -1.0 -1.0 -0.7 -1.1 -1.0 -0.9 -0.8 -0.3 -0.1 1.0 0.2 0.7 0.7 0.8 1.8 2.6 2.8 3.1 3.4 5.1 6.4
-3.4 -4.1 -4.7 -4.1 -4.1 -4.2 -3.3 -2.7 -3.1 -3.9 -1.1 -0.9 -0.7 -0.9 -1.6 -1.5 -0.1 0.1 0.5 0.9 1.6 1.7 -1.0 -1.2 -0.9 -0.8 -0.7 -1.1 -0.6 -0.5 0.0 0.7 0.4 0.3 0.5 1.0 2.4 3.3 4.6 4.4 5.3 4.9 5.5
-4.1 -3.8 -4.6 -4.9 -4.4 -3.9 -2.8 -2.6 -2.0 -1.9 -2.3 -3.0 -1.0 -1.4 -0.8 -0.2 0.1 0.5 1.0 0.4 -0.5 0.1 -1.2 -0.7 -0.7 -1.0 -1.0 -0.7 -0.3 -0.3 0.3 0.4 0.6 1.0 1.2 2.1 2.8 3.9 6.0 6.7 6.2 6.2 6.4
-4.2 -4.5 -4.3 -4.6 -4.5 -3.5 -3.7 -3.4 -2.6 -2.8 -2.4 -3.2 -3.3 -1.4 -0.3 0.9 1.0 1.5 1.2 -1.6 -1.0 -0.5 -0.9 -1.0 -1.0 -0.7 -0.6 -0.7 -0.4 -0.1 0.2 0.9 1.1 1.3 1.6 2.6 4.5 7.5 7.2 7.9 7.7 8.0 8.1
-4.7 -3.8 -3.7 -4.1 -3.9 -3.6 -3.0 -2.2 -2.7 -2.4 -2.3 -2.0 -2.2 -2.0 -1.6 -0.2 -0.5 -1.1 -0.9 -0.4 0.0 0.2 -0.1 -0.6 -0.5 -0.8 -0.7 -0.7 -0.4 0.0 0.3 0.8 1.6 1.8 2.1 2.8 6.8 7.9 7.2 6.6 7.6 7.2 7.2
-5.1 -4.7 -3.1 -3.7 -2.9 -2.5 -2.4 -2.0 -2.2 -2.0 -2.3 -2.6 -2.4 -2.0 -0.3 -0.0 -0.5 0.2 0.4 0.1 0.3 0.2 -0.2 -0.5 -0.6 -0.8 -0.9 -0.6 -0.3 0.1 0.5 1.0 1.3 1.9 2.6 4.3 7.0 7.9 7.8 7.7 7.5 7.4 7.4
-4.6 -4.6 -3.9 -3.1 -3.5 -2.9 -2.8 -2.6 -2.4 -2.6 -2.5 -2.0 -1.9 -0.7 1.6 -0.1 0.4 0.6 0.4 0.7 0.6 0.6 0.0 -0.0 -0.2 -0.4 -0.2 0.4 0.6 0.5 0.7 1.0 1.5 2.5 3.3 4.2 7.8 7.6 7.9 7.6 7.4 7.3 7.3
-4.4 -4.5 -4.5 -3.6 -2.4 -1.6 -2.4 -2.7 -2.5 -2.3 -2.0 -1.5 -0.8 0.3 1.1 1.0 1.1 1.3 1.5 1.4 1.3 0.9 0.3 -0.3 -0.1 -0.1 0.2 0.0 -0.2 0.7 1.2 1.7 2.4 2.7 3.1 4.6 7.1 7.6 7.9 7.5 7.4 7.4 7.3
-3.7 -3.3 -3.6 -3.5 -2.3 -2.1 -1.8 -2.1 -2.1 -1.0 -0.8 -0.1 0.5 1.0 1.8 1.9 1.9 1.5 1.6 1.3 0.9 0.9 0.7 0.6 0.0 0.4 0.9 0.7 0.9 1.5 1.7 2.4 2.7 2.7 3.8 5.9 6.7 7.1 7.3 7.4 7.3 7.4 7.2
-3.8 -3.2 -2.3 -1.8 -1.2 -1.5 -1.1 -1.0 -0.4 0.4 1.0 1.7 2.1 2.5 2.2 2.4 1.6 1.9 2.3 1.1 1.1 1.0 1.0 0.7 0.5 1.3 1.8 1.9 2.0 2.7 3.1 3.9 4.2 4.3 4.8 5.4 6.0 6.5 7.0 7.0 7.3 7.5 7.3
-2.7 -1.9 -1.5 -1.1 -0.7 -0.0 0.5 1.0 1.6 2.4 2.7 3.1 3.2 2.8 2.8 1.9 2.3 2.2 1.3 1.2 1.2 1.2 1.3 1.0 1.6 2.2 2.4 3.1 4.1 4.6 5.0 4.9 5.0 5.4 5.4 5.0 5.1 5.4 5.9 6.5 6.9 7.1 7.3
Wind_Speed
11 11 10 10 9 7 8 8 8 6 7 7 7 6 6 6 5 5 5 5 6 5 4 5 6 5 4 4 4 4 4 5 7 7 3 3 5 6 8 15 17 16 16
11 10 11 8 7 8 10 9 7 8 7 7 7 6 6 5 5 6 6 5 6 6 6 5 6 3 5 4 4 5 5 5 5 11 5 3 5 5 6 6 6 11 12
8 9 8 9 9 11 10 9 8 8 7 7 7 7 6 6 6 6 6 5 6 6 6 5 6 4 5 3 4 4 4 4 4 4 6 2 3 2 4 4 4 5 9
9 10 11 12 12 11 9 8 8 8 8 7 7 7 7 6 6 6 6 6 6 6 5 5 5 5 6 5 4 5 4 3 3 4 4 4 3 3 2 3 4 2 5
11 11 15 11 10 8 8 9 8 8 8 7 7 7 6 6 5 6 6 6 6 5 5 4 4 6 10 8 3 4 3 3 3 3 3 3 3 3 4 2 3 5 3
12 14 12 8 10 12 10 9 8 8 8 7 7 7 7 5 8 10 7 6 6 5 5 4 4 6 6 7 9 10 6 3 3 2 2 3 4 3 2 3 2 2 4
14 14 12 11 12 12 11 9 11 11 7 8 8 7 8 7 10 10 10 5 5 5 5 4 4 3 5 4 7 7 5 6 4 3 4 4 3 3 3 2 3 3 5
14 14 13 13 14 11 11 13 11 9 11 8 8 8 7 6 11 11 10 6 5 5 5 4 3 4 5 4 3 4 4 4 5 4 4 5 5 5 3 4 6 6 4
13 14 14 14 14 12 13 14 11 10 8 8 5 8 8 7 12 12 9 6 5 5 4 4 3 4 4 4 2 5 6 5 7 9 9 9 11 11 10 4 4 4 5
14 16 16 13 15 14 16 14 9 10 12 8 7 8 10 8 11 13 10 4 5 3 4 3 3 3 6 6 3 4 5 4 3 4 5 6 8 8 11 3 3 3 3
14 12 8 10 14 16 14 10 12 12 9 10 9 7 7 8 8 13 15 5 4 4 4 2 2 4 5 9 9 3 5 1 2 3 3 4 4 5 4 5 4 2 2
8 8 9 12 11 9 11 10 9 12 12 10 9 6 5 6 11 12 16 12 10 5 4 3 2 4 8 8 6 5 4 5 3 3 2 2 3 3 4 5 7 6 7
7 8 9 8 8 8 10 9 6 10 10 10 9 8 6 5 5 12 15 16 13 4 3 4 3 5 6 2 3 4 5 2 1 1 2 2 3 4 5 4 5 7 9
7 7 6 7 7 7 7 8 9 9 9 9 9 8 5 5 5 5 5 6 9 6 6 3 2 4 3 1 2 2 1 2 2 1 3 3 3 3 3 3 3 3 4
6 5 6 5 7 6 6 8 9 11 13 13 11 9 9 7 7 11 10 6 5 6 5 2 1 1 1 1 1 1 1 0 1 1 2 3 3 3 3 4 2 3 7
5 4 4 4 5 5 6 4 9 7 11 10 13 9 3 8 15 17 16 15 14 13 3 3 2 4 4 3 3 2 2 4 2 2 3 3 3 4 4 3 3 4 6
7 6 4 5 5 5 6 8 7 6 8 10 14 14 14 11 16 17 16 15 14 11 3 3 3 3 4 4 3 4 2 2 2 3 3 3 3 4 6 5 7 6 5
6 7 5 6 5 5 6 6 7 8 8 4 6 8 13 16 16 16 15 11 5 5 3 3 4 4 4 4 3 3 3 3 3 3 3 3 4 3 3 6 7 7 6
6 5 5 4 5 6 6 6 6 6 6 6 4 4 10 15 15 15 17 4 4 4 4 4 4 3 4 4 4 4 4 3 4 3 3 3 4 5 4 6 7 13 13
6 9 8 5 5 6 6 7 6 6 6 7 6 5 6 6 5 5 4 3 4 4 4 4 4 4 4 4 4 4 4 4 4 3 4 4 5 5 4 5 7 7 7
5 5 9 5 6 6 6 7 6 7 6 6 5 6 14 8 7 7 6 4 5 4 4 4 4 4 4 4 4 4 4 4 4 4 4 4 4 5 5 6 7 7 7
5 6 6 6 6 6 6 6 6 6 6 6 4 5 16 4 5 5 5 5 4 4 4 4 4 4 4 4 4 4 5 5 4 4 5 5 5 5 7 6 9 6 7
6 7 7 5 6 10 6 6 6 6 6 6 6 6 6 4 5 4 4 4 4 3 3 4 4 3 4 4 4 5 5 5 6 4 5 5 5 5 6 6 7 8 7
6 8 9 8 7 7 7 7 6 8 7 6 6 5 5 5 4 5 4 4 4 3 3 3 4 5 5 4 5 8 9 9 9 6 7 6 6 7 6 6 7 9 9
5 6 7 8 9 7 8 7 7 7 7 6 5 5 4 4 4 4 4 3 3 3 3 3 3 5 6 7 6 9 13 15 13 12 8 7 8 9 8 6 8 8 10
7 7 7 7 7 7 7 7 6 6 6 6 5 5 4 4 3 3 4 4 3 3 3 2 4 6 6 7 9 11 14 15 13 16 12 7 7 7 7 8 10 8 10
Wind_Direction
196 201 204 205 203 196 209 218 218 214 217 222 220 218 214 214 208 207 219 221 226 248 237 234 253 237 240 227 211 208 209 201 250 282 262 272 269 267 282 289 287 286 286
202 196 206 201 191 202 215 217 201 219 214 217 215 218 219 216 203 213 226 216 224 240 250 238 257 246 254 235 220 229 221 207 222 275 287 272 253 268 261 281 289 290 283
182 188 195 204 200 213 216 211 199 210 215 215 209 216 219 219 214 220 224 230 232 238 246 245 263 263 274 242 235 249 243 246 219 238 276 263 276 283 291 285 277 285 292
188 195 205 209 210 213 211 203 201 202 202 209 209 213 212 208 210 218 214 227 235 237 241 239 252 249 255 266 241 248 261 260 249 248 269 275 253 284 263 269 306 272 303
198 202 217 212 205 199 202 204 204 196 205 202 197 210 207 202 201 204 203 220 227 237 240 244 249 253 263 266 250 265 243 243 263 279 277 275 273 310 283 298 286 298 278
203 216 216 201 197 206 206 201 195 201 198 193 202 200 202 209 200 198 184 209 221 225 245 257 262 282 291 299 300 293 271 242 273 249 275 273 275 254 268 275 270 299 312
204 213 210 205 207 207 203 188 200 200 182 197 200 198 209 208 201 203 197 200 208 217 222 241 281 285 318 302 302 316 325 331 331 232 254 268 278 264 286 273 261 266 284
208 213 209 201 210 200 191 204 201 187 192 190 198 201 200 209 196 200 203 184 193 216 226 225 220 285 285 285 325 329 325 320 301 298 249 269 256 286 285 306 323 316 299
211 216 212 205 204 192 200 207 201 181 180 189 180 189 194 209 199 197 174 171 197 219 228 219 212 245 252 324 331 314 311 298 320 332 334 352 4 5 12 11 349 344 317
215 218 218 203 202 199 207 199 188 194 199 178 183 189 195 199 200 197 171 165 190 198 223 224 244 220 264 309 310 275 281 282 319 351 357 357 5 352 357 19 318 323 303
224 225 204 194 204 207 204 188 189 188 173 175 180 182 190 191 198 197 177 171 173 190 202 202 221 272 302 298 291 247 245 212 18 41 4 351 352 341 334 335 315 271 272
218 207 204 204 207 201 188 190 184 181 181 175 171 178 197 195 197 198 187 181 179 173 193 196 212 283 289 294 292 256 112 89 56 18 4 343 327 314 304 308 303 303 286
215 216 209 200 197 182 183 179 167 179 182 179 180 185 190 187 196 198 194 187 179 163 167 180 205 275 287 248 168 100 65 62 67 8 329 282 261 277 291 302 301 296 290
233 231 212 197 193 182 186 181 183 182 184 179 180 189 174 169 181 186 177 170 168 150 163 155 210 264 207 184 65 46 138 169 156 220 253 269 290 315 305 303 294 305 299
249 243 214 196 189 185 190 187 192 199 190 183 190 178 166 185 200 178 163 158 159 175 140 120 188 228 257 257 235 238 273 187 265 256 261 298 295 288 293 308 298 316 333
238 233 214 194 185 175 166 111 42 144 133 120 141 151 156 155 161 171 171 167 166 162 121 171 198 211 220 222 225 240 235 245 237 255 275 279 286 291 290 292 292 290 312
228 209 194 188 179 174 174 173 151 59 107 135 148 151 153 151 157 162 158 155 162 161 163 192 210 212 228 228 227 216 222 231 235 258 255 268 275 287 310 323 319 314 317
228 214 197 188 181 172 179 172 160 156 151 137 134 133 143 150 151 150 150 133 156 182 171 190 211 215 216 220 227 215 226 249 259 264 282 283 277 273 289 324 321 309 301
205 207 197 182 171 167 152 155 151 141 142 139 119 116 152 154 153 159 160 151 164 182 193 212 217 218 222 219 224 224 211 225 239 244 252 267 267 295 275 306 303 312 312
204 199 177 172 162 161 163 163 153 150 147 157 162 159 145 134 163 169 164 162 175 191 197 211 218 216 221 214 220 212 216 229 247 245 250 255 282 295 281 289 304 302 294
185 164 176 158 174 173 167 165 156 154 159 160 164 165 170 170 170 175 178 178 189 199 203 203 210 215 211 213 218 215 209 222 225 235 245 255 264 281 280 293 289 287 293
182 168 168 173 155 159 162 151 152 149 148 151 150 164 169 153 161 169 177 189 194 201 195 196 209 215 202 206 213 211 215 226 227 225 235 248 271 268 297 300 306 291 290
176 171 160 157 160 149 143 143 146 150 155 152 152 152 164 162 159 159 174 188 186 200 208 197 215 225 221 215 209 213 215 224 228 218 225 240 263 251 279 283 297 290 280
179 182 169 156 154 152 151 150 144 143 144 146 148 147 154 154 164 168 177 179 183 197 201 211 209 220 245 240 228 231 226 231 221 226 232 244 256 270 267 270 275 280 280
155 153 157 154 151 144 137 138 140 140 141 143 144 136 137 142 146 157 175 158 170 188 209 208 212 239 246 250 247 244 245 242 232 226 228 235 238 252 257 260 267 275 277
135 130 127 121 120 123 126 127 128 129 128 127 133 133 142 119 140 150 134 154 168 188 212 229 240 240 257 261 262 266 263 258 248 246 242 233 238 246 253 258 261 271 280